Weather History for PAPG - March, 2013

Change the Weather History Date:

Friday, March 15, 2013

  Actual Average Record
Temperature  
Mean Temperature 30 °F -  
Max Temperature 33 °F 36 °F 51 °F (2003)
Min Temperature 28 °F 26 °F 5 °F (2006)
Degree Days  
Heating Degree Days 34    
Moisture  
Dew Point 27 °F    
Average Humidity 85    
Maximum Humidity 93    
Minimum Humidity 75    
Precipitation  
Precipitation 0.08 in - - ()
Sea Level Pressure  
Sea Level Pressure 29.89 in    
Wind  
Wind Speed 3 mph (West)    
Max Wind Speed 12 mph    
Max Gust Speed -    
Visibility 5 miles    
Events      
Averages and records for this station are not official NWS values.
T = Trace of Precipitation, MM = Missing Value Source: NWS Daily Summary

Daily Weather History Graph

Daily Weather History Graph

Search for Another Location

Airport or City:

Trip Planner

Search our weather history database for the weather conditions in past years. The results will help you decide how hot, cold, wet, or windy it might be!

Date:

Astronomy

Mar. 15, 2013 Rise Set
Actual Time 7:06 AM AKDT 6:56 PM AKDT
Civil Twilight 6:28 AM AKDT 7:34 PM AKDT
Nautical Twilight 5:43 AM AKDT 8:18 PM AKDT
Astronomical Twilight 4:57 AM AKDT 9:05 PM AKDT
Moon 8:09 AM AKDT (3/15) No Moon Set
Length of Visible Light 13h 05m
Length of Day
11h 49m
Waxing Crescent, 16% of the Moon is Illuminated
Mar 15
Waxing Crescent
Mar 19
First Quarter
Mar 27
Full
Apr 2
Last Quarter
Apr 10
New

Hourly Weather History & Observations

Time (AKDT) Temp. Windchill Dew Point Humidity Pressure Visibility Wind Dir Wind Speed Gust Speed Precip Events Conditions
12:16 AM 30.2 °F - 26.6 °F 86% 29.88 in 8.0 mi Calm Calm - N/A   Overcast
12:36 AM 30.2 °F - 26.6 °F 86% 29.89 in 10.0 mi Calm Calm - N/A   Overcast
12:56 AM 30.2 °F - 26.6 °F 86% 29.89 in 10.0 mi Calm Calm - N/A   Overcast
1:16 AM 30.2 °F - 26.6 °F 86% 29.89 in 10.0 mi Calm Calm - N/A   Overcast
1:36 AM 30.2 °F 25.4 °F 26.6 °F 86% 29.89 in 4.0 mi SSW 4.6 mph - N/A   Overcast
1:56 AM 30.2 °F 24.3 °F 26.6 °F 86% 29.89 in 4.0 mi WSW 5.8 mph - N/A   Overcast
2:16 AM 30.2 °F 24.3 °F 26.6 °F 86% 29.89 in 4.0 mi WSW 5.8 mph - N/A   Overcast
2:36 AM 30.2 °F 24.3 °F 26.6 °F 86% 29.89 in 3.0 mi West 5.8 mph - N/A   Overcast
2:56 AM 30.2 °F 26.7 °F 26.6 °F 86% 29.89 in 5.0 mi WNW 3.5 mph - N/A   Overcast
3:16 AM 30.2 °F 24.3 °F 26.6 °F 86% 29.89 in 2.5 mi NW 5.8 mph - N/A   Overcast
3:36 AM 30.2 °F 25.4 °F 26.6 °F 86% 29.89 in 3.0 mi NW 4.6 mph - N/A   Overcast
3:56 AM 30.2 °F 25.4 °F 26.6 °F 86% 29.88 in 1.8 mi West 4.6 mph - N/A   Overcast
4:16 AM 30.2 °F 24.3 °F 26.6 °F 86% 29.88 in 2.5 mi West 5.8 mph - N/A   Overcast
4:36 AM 30.2 °F 23.4 °F 26.6 °F 86% 29.88 in 2.5 mi WSW 6.9 mph - N/A   Overcast
4:56 AM 30.2 °F 26.7 °F 26.6 °F 86% 29.87 in 2.5 mi South 3.5 mph - N/A   Overcast
5:16 AM 30.2 °F 25.4 °F 26.6 °F 86% 29.86 in 3.0 mi West 4.6 mph - N/A   Overcast
5:36 AM 30.2 °F 25.4 °F 26.6 °F 86% 29.85 in 3.0 mi West 4.6 mph - 0.01 in   Overcast
5:56 AM 30.2 °F 25.4 °F 26.6 °F 86% 29.85 in 3.0 mi SW 4.6 mph - 0.01 in   Overcast
6:16 AM 30.2 °F 25.4 °F 26.6 °F 86% 29.85 in 3.0 mi West 4.6 mph - N/A   Overcast
6:36 AM 30.2 °F 26.7 °F 26.6 °F 86% 29.85 in 3.0 mi West 3.5 mph - N/A   Overcast
6:56 AM 30.2 °F 24.3 °F 26.6 °F 86% 29.84 in 1.2 mi WNW 5.8 mph - N/A   Overcast
7:16 AM 30.2 °F 24.3 °F 26.6 °F 86% 29.83 in 1.2 mi West 5.8 mph - N/A   Overcast
7:36 AM 30.2 °F 23.4 °F 26.6 °F 86% 29.83 in 1.2 mi West 6.9 mph - 0.01 in   Overcast
7:56 AM 30.2 °F 24.3 °F 26.6 °F 86% 29.83 in 1.2 mi WSW 5.8 mph - 0.01 in   Overcast
8:16 AM 30.2 °F - 28.4 °F 93% 29.83 in 1.2 mi Calm Calm - N/A   Overcast
8:36 AM 30.2 °F - 26.6 °F 86% 29.83 in 1.2 mi Calm Calm - N/A   Overcast
8:56 AM 30.2 °F 23.4 °F 26.6 °F 86% 29.84 in 1.0 mi WNW 6.9 mph - 0.01 in   Overcast
9:16 AM 30.2 °F 24.3 °F 28.4 °F 93% 29.84 in 1.0 mi WNW 5.8 mph - N/A   Overcast
9:36 AM 30.2 °F 23.4 °F 28.4 °F 93% 29.84 in 1.0 mi West 6.9 mph - 0.01 in   Overcast
9:56 AM 32.0 °F 28.7 °F 28.4 °F 87% 29.84 in 1.0 mi West 3.5 mph - 0.01 in   Overcast
10:16 AM 30.2 °F 21.9 °F 28.4 °F 93% 29.84 in 2.0 mi West 9.2 mph - 0.01 in   Overcast
10:50 AM 30.2 °F 20.8 °F 28.4 °F 93% 29.85 in 2.5 mi SSW 11.5 mph - N/A   Overcast
11:16 AM 32.0 °F 24.8 °F 28.4 °F 87% 29.86 in 2.5 mi West 8.1 mph - N/A   Overcast
11:36 AM 32.0 °F 26.4 °F 28.4 °F 87% 29.87 in 4.0 mi West 5.8 mph - N/A   Overcast
11:56 AM 32.0 °F 25.6 °F 28.4 °F 87% 29.87 in 2.5 mi West 6.9 mph - N/A   Overcast
12:16 PM 33.8 °F 27.7 °F 28.4 °F 81% 29.87 in 4.0 mi West 6.9 mph - N/A   Overcast
12:36 PM 33.8 °F 28.6 °F 28.4 °F 81% 29.88 in 4.0 mi WSW 5.8 mph - N/A   Overcast
12:56 PM 33.8 °F 28.6 °F 28.4 °F 81% 29.89 in 5.0 mi WSW 5.8 mph - 0.02 in   Overcast
1:16 PM 33.8 °F 30.8 °F 28.4 °F 81% 29.89 in 5.0 mi SW 3.5 mph - N/A   Overcast
1:36 PM 33.8 °F 29.6 °F 28.4 °F 81% 29.89 in 5.0 mi West 4.6 mph - 0.01 in   Overcast
1:56 PM 33.8 °F 29.6 °F 28.4 °F 81% 29.89 in 7.0 mi West 4.6 mph - 0.01 in   Overcast
2:16 PM 33.8 °F 29.6 °F 28.4 °F 81% 29.89 in 7.0 mi WSW 4.6 mph - N/A   Overcast
2:36 PM 33.8 °F 30.8 °F 28.4 °F 81% 29.89 in 7.0 mi WSW 3.5 mph - N/A   Overcast
2:56 PM 33.8 °F 30.8 °F 28.4 °F 81% 29.90 in 7.0 mi West 3.5 mph - N/A   Mostly Cloudy
3:16 PM 33.8 °F - 28.4 °F 81% 29.91 in 7.0 mi Calm Calm - N/A   Mostly Cloudy
3:36 PM 33.8 °F - 28.4 °F 81% 29.91 in 7.0 mi Calm Calm - N/A   Mostly Cloudy
3:56 PM 33.8 °F 29.6 °F 28.4 °F 81% 29.91 in 7.0 mi West 4.6 mph - N/A   Overcast
4:16 PM 33.8 °F 29.6 °F 28.4 °F 81% 29.91 in 7.0 mi SW 4.6 mph - N/A   Overcast
4:36 PM 33.8 °F 30.8 °F 28.4 °F 81% 29.92 in 7.0 mi West 3.5 mph - N/A   Overcast
4:56 PM 33.8 °F 29.6 °F 28.4 °F 81% 29.93 in 10.0 mi NW 4.6 mph - N/A   Overcast
5:16 PM 33.8 °F 30.8 °F 28.4 °F 81% 29.93 in 10.0 mi NW 3.5 mph - N/A   Overcast
5:36 PM 33.8 °F 29.6 °F 26.6 °F 75% 29.93 in 10.0 mi NW 4.6 mph - N/A   Overcast
5:56 PM 32.0 °F 27.5 °F 26.6 °F 80% 29.93 in 10.0 mi WNW 4.6 mph - N/A   Overcast
6:16 PM 33.8 °F 30.8 °F 28.4 °F 81% 29.94 in 10.0 mi WSW 3.5 mph - N/A   Overcast
6:36 PM 33.8 °F 30.8 °F 28.4 °F 81% 29.94 in 10.0 mi NW 3.5 mph - N/A   Overcast
6:56 PM 32.0 °F 28.7 °F 26.6 °F 80% 29.94 in 10.0 mi NNW 3.5 mph - N/A   Overcast
7:16 PM 32.0 °F - 26.6 °F 80% 29.94 in 10.0 mi Calm Calm - N/A   Overcast
7:36 PM 32.0 °F - 26.6 °F 80% 29.95 in 10.0 mi Calm Calm - N/A   Overcast
7:56 PM 30.2 °F 26.7 °F 26.6 °F 86% 29.95 in 7.0 mi NNW 3.5 mph - N/A   Overcast
8:16 PM 30.2 °F - 26.6 °F 86% 29.95 in 7.0 mi Calm Calm - N/A   Overcast
8:36 PM 30.2 °F - 26.6 °F 86% 29.95 in 7.0 mi Calm Calm - N/A   Overcast
9:56 PM 30.2 °F 26.7 °F 26.6 °F 86% 29.96 in 7.0 mi West 3.5 mph - N/A   Overcast
10:16 PM - - - N/A% 29.96 in 4.0 mi Calm Calm - N/A   Overcast
10:36 PM 30.2 °F - 26.6 °F 86% 29.96 in 9.0 mi Calm Calm - N/A   Overcast
10:56 PM 30.2 °F - 26.6 °F 86% 29.97 in 4.0 mi Calm Calm - N/A   Overcast
11:16 PM 28.4 °F 24.6 °F 26.6 °F 93% 29.97 in 3.0 mi North 3.5 mph - N/A   Overcast
11:36 PM 28.4 °F - 26.6 °F 93% 29.98 in 3.0 mi Calm Calm - N/A   Overcast
11:56 PM 28.4 °F - 26.6 °F 93% 29.98 in 4.0 mi Calm Calm - N/A   Overcast